User: anonymous   Login
Location: Trois-Rivi�res
(46.3500°N, 72.5500°W)
Time: 12:16:04
(UTC-04:00)
Language:

SJ-11-01 - Orbit

View from above orbital plane
View from above orbital plane
View from above satellite
View from above satellite

Ground track
Ground track

The orbit data is extracted from the following two-line orbital elements,

1 36088U 09061A   15089.14585096  .00000545  00000-0  12470-3 0  9993
2 36088 098.2480 135.5538 0010201 271.9556 088.0508 14.59533525286464
Epoch (UTC): 30 March 2015 03:30:01
Eccentricity: 0.0010201
inclination: 98.2480°
perigee height: 687 km
apogee height: 702 km
right ascension of ascending node: 135.5538°
argument of perigee: 271.9556°
revolutions per day: 14.59533525
mean anomaly at epoch: 88.0508°
orbit number at epoch: 28646

The dashed part of the orbit path shows where the satellite is in the earth's shadow,  

DLR